Location: Bucquoy
(50.1391°N, 2.7097°E)
Time: 07:34:50
(UTC+00:00)

Okean 3 - Pass Details

Date: 06 May 2021
Orbit: 575 x 601 km, 82.5° (Epoch: 21 June)

Event Time Altitude Azimuth Distance (km) Brightness Sun altitude
Exits shadow 00:41:56 69° 155° (SSE) 642 3.4 -22.2°
Maximum altitude 00:42:22 78° 98° (E) 615 3.4 -22.2°
Drops below altitude 10° 00:46:39 10° 12° (NNE) 1,937 7.3 -22.0°
Sets 00:48:51 0° 12° (NNE) 2,840 8.5 -21.9°
